Location: Multiple Mirror Telescope
(31.6889°N, 110.8853°W)
Time: 05:06:46
(UTC-07:00)

ISS - Pass Details

Date: 22 April 2026
Orbit: 414 x 424 km, 51.6° (Epoch: 18 May)

Event Time Altitude Azimuth Distance (km) Brightness Sun altitude
Exits shadow 04:13:43 11° 326° (NW) 1,411 -1.2 -19.3°
Maximum altitude 04:13:55 11° 329° (NNW) 1,409 -1.1 -19.2°
Drops below altitude 10° 04:15:07 10° 350° (N) 1,498 -0.7 -19.0°
Sets 04:18:28 0° 26° (NNE) 2,369 1.0 -18.4°
